Time,TemperatureF,DewpointF,PressureIn,WindDirection,WindDirectionDegrees,WindSpeedMPH,WindSpeedGustMPH,Humidity,HourlyPrecipIn,Conditions,Clouds,dailyrainin,SolarRadiationWatts/m^2,SoftwareType,DateUTC
2013-04-03 00:02:00,49.5,47.5,30.01,SW,216,0.0,1.0,93,0.00,,,0.00,0,HR-IXPWINDi_r2_v1.2.,2013-04-03 07:02:00,
2013-04-03 00:07:00,49.7,47.7,30.01,SW,216,0.0,1.0,93,0.00,,,0.00,0,HR-IXPWINDi_r2_v1.2.,2013-04-03 07:07:00,
2013-04-03 00:13:00,49.6,47.6,30.01,SW,216,0.0,1.0,93,0.00,,,0.00,0,HR-IXPWINDi_r2_v1.2.,2013-04-03 07:13:00,
2013-04-03 00:18:00,49.1,47.1,30.01,SW,216,0.0,1.0,93,0.00,,,0.00,0,HR-IXPWINDi_r2_v1.2.,2013-04-03 07:18:00,
2013-04-03 00:23:00,48.9,46.9,30.01,SW,217,1.0,2.0,93,0.00,,,0.00,0,HR-IXPWINDi_r2_v1.2.,2013-04-03 07:23:00,
2013-04-03 00:28:00,48.9,46.9,30.01,SW,217,0.0,2.0,93,0.00,,,0.00,0,HR-IXPWINDi_r2_v1.2.,2013-04-03 07:28:00,
2013-04-03 00:33:00,49.2,47.2,30.01,SW,217,0.0,2.0,93,0.00,,,0.00,0,HR-IXPWINDi_r2_v1.2.,2013-04-03 07:33:00,
2013-04-03 00:38:00,48.8,46.5,30.01,SW,217,0.0,2.0,92,0.00,,,0.00,0,HR-IXPWINDi_r2_v1.2.,2013-04-03 07:38:00,
2013-04-03 00:44:00,48.9,46.9,30.01,SW,217,0.0,0.0,93,0.00,,,0.00,0,HR-IXPWINDi_r2_v1.2.,2013-04-03 07:44:00,
2013-04-03 00:49:00,48.7,46.7,30.01,SW,217,0.0,0.0,93,0.00,,,0.00,0,HR-IXPWINDi_r2_v1.2.,2013-04-03 07:49:00,
2013-04-03 00:54:00,48.5,46.5,30.01,SW,224,1.0,2.0,93,0.00,,,0.00,0,HR-IXPWINDi_r2_v1.2.,2013-04-03 07:54:00,
2013-04-03 00:59:00,48.2,45.9,30.01,SW,224,0.0,2.0,92,0.00,,,0.00,0,HR-IXPWINDi_r2_v1.2.,2013-04-03 07:59:00,
2013-04-03 01:05:00,48.0,46.0,30.01,SW,224,0.0,1.0,93,0.00,,,0.00,0,HR-IXPWINDi_r2_v1.2.,2013-04-03 08:05:00,
2013-04-03 01:10:00,48.0,46.0,30.01,SW,224,0.0,1.0,93,0.00,,,0.00,0,HR-IXPWINDi_r2_v1.2.,2013-04-03 08:10:00,
2013-04-03 01:15:00,48.2,46.2,30.01,SW,224,0.0,1.0,93,0.00,,,0.00,0,HR-IXPWINDi_r2_v1.2.,2013-04-03 08:15:00,
2013-04-03 01:20:00,47.8,45.5,30.01,SW,224,1.0,1.0,92,0.00,,,0.00,0,HR-IXPWINDi_r2_v1.2.,2013-04-03 08:20:00,
2013-04-03 01:25:00,47.6,45.6,30.01,SW,227,1.0,2.0,93,0.00,,,0.00,0,HR-IXPWINDi_r2_v1.2.,2013-04-03 08:25:00,
2013-04-03 01:30:00,47.7,45.7,30.01,SW,233,1.0,2.0,93,0.00,,,0.00,0,HR-IXPWINDi_r2_v1.2.,2013-04-03 08:30:00,
2013-04-03 01:35:00,47.8,45.8,30.01,SW,235,1.0,2.0,93,0.00,,,0.00,0,HR-IXPWINDi_r2_v1.2.,2013-04-03 08:35:00,
2013-04-03 01:41:00,48.5,46.8,30.01,WNW,292,0.0,4.0,94,0.00,,,0.00,0,HR-IXPWINDi_r2_v1.2.,2013-04-03 08:41:00,
2013-04-03 01:46:00,48.6,46.6,30.01,WNW,292,0.0,4.0,93,0.00,,,0.00,0,HR-IXPWINDi_r2_v1.2.,2013-04-03 08:46:00,
2013-04-03 01:51:00,48.1,45.8,30.01,WNW,292,1.0,2.0,92,0.00,,,0.00,0,HR-IXPWINDi_r2_v1.2.,2013-04-03 08:51:00,
2013-04-03 01:56:00,47.9,45.9,30.01,WNW,292,1.0,2.0,93,0.00,,,0.00,0,HR-IXPWINDi_r2_v1.2.,2013-04-03 08:56:00,
2013-04-03 02:01:00,48.0,46.0,30.01,WNW,292,0.0,2.0,93,0.00,,,0.00,0,HR-IXPWINDi_r2_v1.2.,2013-04-03 09:01:00,
2013-04-03 02:06:00,47.7,45.4,30.01,WNW,292,0.0,2.0,92,0.00,,,0.00,0,HR-IXPWINDi_r2_v1.2.,2013-04-03 09:06:00,
2013-04-03 02:11:00,47.9,45.9,30.01,WNW,299,2.0,3.0,93,0.00,,,0.00,0,HR-IXPWINDi_r2_v1.2.,2013-04-03 09:11:00,
2013-04-03 02:16:00,48.3,46.0,30.01,NW,304,0.0,3.0,92,0.00,,,0.00,0,HR-IXPWINDi_r2_v1.2.,2013-04-03 09:16:00,
2013-04-03 02:22:00,48.4,45.8,30.01,NW,304,0.0,3.0,91,0.00,,,0.00,0,HR-IXPWINDi_r2_v1.2.,2013-04-03 09:22:00,
2013-04-03 02:27:00,48.0,45.4,30.01,NW,304,0.0,2.0,91,0.00,,,0.00,0,HR-IXPWINDi_r2_v1.2.,2013-04-03 09:27:00,
2013-04-03 02:32:00,48.0,45.4,30.01,NW,304,0.0,2.0,91,0.00,,,0.00,0,HR-IXPWINDi_r2_v1.2.,2013-04-03 09:32:00,
2013-04-03 02:37:00,47.8,45.2,30.01,NW,304,0.0,0.0,91,0.00,,,0.00,0,HR-IXPWINDi_r2_v1.2.,2013-04-03 09:37:00,
2013-04-03 02:43:00,47.5,44.9,30.01,NW,304,0.0,0.0,91,0.00,,,0.00,0,HR-IXPWINDi_r2_v1.2.,2013-04-03 09:43:00,
2013-04-03 02:48:00,47.3,44.7,30.01,NW,304,1.0,2.0,91,0.00,,,0.00,0,HR-IXPWINDi_r2_v1.2.,2013-04-03 09:48:00,
2013-04-03 02:53:00,47.1,44.6,30.01,NW,304,2.0,2.0,91,0.00,,,0.00,0,HR-IXPWINDi_r2_v1.2.,2013-04-03 09:53:00,
2013-04-03 02:58:00,47.4,44.8,30.01,NW,304,0.0,2.0,91,0.00,,,0.00,0,HR-IXPWINDi_r2_v1.2.,2013-04-03 09:58:00,
2013-04-03 03:03:00,46.9,44.4,30.01,NW,304,0.0,2.0,91,0.00,,,0.00,0,HR-IXPWINDi_r2_v1.2.,2013-04-03 10:03:00,
2013-04-03 03:08:00,46.8,44.5,30.01,NW,304,0.0,2.0,92,0.00,,,0.00,0,HR-IXPWINDi_r2_v1.2.,2013-04-03 10:08:00,
2013-04-03 03:13:00,46.9,44.6,30.01,NW,304,1.0,2.0,92,0.00,,,0.00,0,HR-IXPWINDi_r2_v1.2.,2013-04-03 10:13:00,
2013-04-03 03:19:00,47.3,45.0,30.01,NW,304,1.0,2.0,92,0.00,,,0.00,0,HR-IXPWINDi_r2_v1.2.,2013-04-03 10:19:00,
2013-04-03 03:24:00,47.9,45.6,30.01,NW,304,0.0,2.0,92,0.00,,,0.00,0,HR-IXPWINDi_r2_v1.2.,2013-04-03 10:24:00,
2013-04-03 03:29:00,48.1,45.5,30.01,NW,304,0.0,2.0,91,0.00,,,0.00,0,HR-IXPWINDi_r2_v1.2.,2013-04-03 10:29:00,
2013-04-03 03:34:00,48.2,45.3,30.01,West,275,1.0,2.0,90,0.00,,,0.00,0,HR-IXPWINDi_r2_v1.2.,2013-04-03 10:34:00,
2013-04-03 03:39:00,47.9,45.0,30.01,West,275,0.0,2.0,90,0.00,,,0.00,0,HR-IXPWINDi_r2_v1.2.,2013-04-03 10:39:00,
2013-04-03 03:44:00,47.8,45.0,30.01,West,275,0.0,2.0,90,0.00,,,0.00,0,HR-IXPWINDi_r2_v1.2.,2013-04-03 10:44:00,
2013-04-03 03:50:00,47.8,45.0,30.02,West,275,0.0,1.0,90,0.00,,,0.00,0,HR-IXPWINDi_r2_v1.2.,2013-04-03 10:50:00,
2013-04-03 03:55:00,47.7,44.9,30.02,West,275,0.0,1.0,90,0.00,,,0.00,0,HR-IXPWINDi_r2_v1.2.,2013-04-03 10:55:00,
2013-04-03 04:00:00,47.7,44.9,30.01,West,275,0.0,1.0,90,0.00,,,0.00,0,HR-IXPWINDi_r2_v1.2.,2013-04-03 11:00:00,
2013-04-03 04:05:00,47.3,44.5,30.01,West,275,0.0,1.0,90,0.00,,,0.00,0,HR-IXPWINDi_r2_v1.2.,2013-04-03 11:05:00,
2013-04-03 04:10:00,46.8,44.0,30.02,West,275,0.0,1.0,90,0.00,,,0.00,0,HR-IXPWINDi_r2_v1.2.,2013-04-03 11:10:00,
2013-04-03 04:15:00,46.4,43.9,30.02,West,275,0.0,1.0,91,0.00,,,0.00,0,HR-IXPWINDi_r2_v1.2.,2013-04-03 11:15:00,
2013-04-03 04:20:00,46.1,43.6,30.02,West,275,0.0,1.0,91,0.00,,,0.00,0,HR-IXPWINDi_r2_v1.2.,2013-04-03 11:20:00,
2013-04-03 04:26:00,45.9,43.7,30.02,West,275,0.0,1.0,92,0.00,,,0.00,0,HR-IXPWINDi_r2_v1.2.,2013-04-03 11:26:00,
2013-04-03 04:31:00,46.3,44.0,30.02,West,275,0.0,1.0,92,0.00,,,0.00,0,HR-IXPWINDi_r2_v1.2.,2013-04-03 11:31:00,
2013-04-03 04:36:00,46.0,43.7,30.02,West,275,0.0,1.0,92,0.00,,,0.00,0,HR-IXPWINDi_r2_v1.2.,2013-04-03 11:36:00,
2013-04-03 04:41:00,45.7,43.5,30.02,West,275,0.0,0.0,92,0.00,,,0.00,0,HR-IXPWINDi_r2_v1.2.,2013-04-03 11:41:00,
2013-04-03 04:46:00,45.5,43.3,30.02,West,275,0.0,1.0,92,0.00,,,0.00,0,HR-IXPWINDi_r2_v1.2.,2013-04-03 11:46:00,
2013-04-03 04:51:00,45.5,43.5,30.02,West,275,0.0,1.0,93,0.00,,,0.00,0,HR-IXPWINDi_r2_v1.2.,2013-04-03 11:51:00,
2013-04-03 04:56:00,45.4,43.4,30.02,West,275,0.0,1.0,93,0.00,,,0.00,0,HR-IXPWINDi_r2_v1.2.,2013-04-03 11:56:00,
2013-04-03 05:01:00,45.3,43.3,30.02,West,275,0.0,1.0,93,0.00,,,0.00,0,HR-IXPWINDi_r2_v1.2.,2013-04-03 12:01:00,
2013-04-03 05:07:00,45.4,43.4,30.02,West,275,0.0,1.0,93,0.00,,,0.00,0,HR-IXPWINDi_r2_v1.2.,2013-04-03 12:07:00,
2013-04-03 05:12:00,45.4,43.4,30.03,West,275,0.0,1.0,93,0.00,,,0.00,0,HR-IXPWINDi_r2_v1.2.,2013-04-03 12:12:00,
2013-04-03 05:17:00,45.5,43.5,30.03,West,275,1.0,2.0,93,0.00,,,0.00,0,HR-IXPWINDi_r2_v1.2.,2013-04-03 12:17:00,
2013-04-03 05:22:00,45.4,43.4,30.03,West,275,0.0,2.0,93,0.00,,,0.00,0,HR-IXPWINDi_r2_v1.2.,2013-04-03 12:22:00,
2013-04-03 05:27:00,45.3,43.3,30.02,West,275,0.0,1.0,93,0.00,,,0.00,0,HR-IXPWINDi_r2_v1.2.,2013-04-03 12:27:00,
2013-04-03 05:32:00,45.3,43.3,30.02,West,275,0.0,1.0,93,0.00,,,0.00,0,HR-IXPWINDi_r2_v1.2.,2013-04-03 12:32:00,
2013-04-03 05:38:00,45.2,43.5,30.03,West,275,0.0,1.0,94,0.00,,,0.00,0,HR-IXPWINDi_r2_v1.2.,2013-04-03 12:38:00,
2013-04-03 05:43:00,45.4,43.7,30.03,West,275,1.0,1.0,94,0.00,,,0.00,0,HR-IXPWINDi_r2_v1.2.,2013-04-03 12:43:00,
2013-04-03 05:48:00,44.9,42.9,30.02,West,275,0.0,1.0,93,0.00,,,0.00,0,HR-IXPWINDi_r2_v1.2.,2013-04-03 12:48:00,
2013-04-03 05:54:00,45.1,43.4,30.03,West,275,0.0,1.0,94,0.00,,,0.00,0,HR-IXPWINDi_r2_v1.2.,2013-04-03 12:54:00,
2013-04-03 05:59:00,44.8,43.1,30.03,West,275,0.0,1.0,94,0.00,,,0.00,0,HR-IXPWINDi_r2_v1.2.,2013-04-03 12:59:00,
2013-04-03 06:04:00,44.8,43.1,30.03,West,275,0.0,1.0,94,0.00,,,0.00,0,HR-IXPWINDi_r2_v1.2.,2013-04-03 13:04:00,
2013-04-03 06:09:00,44.6,42.9,30.03,West,275,0.0,1.0,94,0.00,,,0.00,0,HR-IXPWINDi_r2_v1.2.,2013-04-03 13:09:00,
2013-04-03 06:14:00,44.8,43.1,30.03,West,275,0.0,1.0,94,0.00,,,0.00,0,HR-IXPWINDi_r2_v1.2.,2013-04-03 13:14:00,
2013-04-03 06:19:00,44.5,42.8,30.04,West,275,1.0,1.0,94,0.00,,,0.00,0,HR-IXPWINDi_r2_v1.2.,2013-04-03 13:19:00,
2013-04-03 06:24:00,44.5,42.8,30.04,West,275,0.0,1.0,94,0.00,,,0.00,0,HR-IXPWINDi_r2_v1.2.,2013-04-03 13:24:00,
2013-04-03 06:29:00,44.1,42.4,30.04,West,275,0.0,1.0,94,0.00,,,0.00,0,HR-IXPWINDi_r2_v1.2.,2013-04-03 13:29:00,
2013-04-03 06:34:00,43.7,42.0,30.04,West,275,0.0,0.0,94,0.00,,,0.00,0,HR-IXPWINDi_r2_v1.2.,2013-04-03 13:34:00,
2013-04-03 06:40:00,43.7,42.0,30.04,West,275,0.0,0.0,94,0.00,,,0.00,5,HR-IXPWINDi_r2_v1.2.,2013-04-03 13:40:00,
2013-04-03 06:45:00,43.4,41.7,30.04,West,275,0.0,0.0,94,0.00,,,0.00,9,HR-IXPWINDi_r2_v1.2.,2013-04-03 13:45:00,
2013-04-03 06:50:00,43.5,41.8,30.04,West,275,0.0,1.0,94,0.00,,,0.00,11,HR-IXPWINDi_r2_v1.2.,2013-04-03 13:50:00,
2013-04-03 06:55:00,43.5,41.8,30.04,West,275,0.0,1.0,94,0.00,,,0.00,12,HR-IXPWINDi_r2_v1.2.,2013-04-03 13:55:00,
2013-04-03 07:00:00,43.5,41.8,30.04,West,275,0.0,1.0,94,0.00,,,0.00,12,HR-IXPWINDi_r2_v1.2.,2013-04-03 14:00:00,
2013-04-03 07:05:00,43.6,41.9,30.04,West,275,0.0,1.0,94,0.00,,,0.00,18,HR-IXPWINDi_r2_v1.2.,2013-04-03 14:05:00,
2013-04-03 07:10:00,43.4,41.7,30.05,West,275,0.0,0.0,94,0.00,,,0.00,26,HR-IXPWINDi_r2_v1.2.,2013-04-03 14:10:00,
2013-04-03 07:16:00,43.8,42.4,30.05,West,275,1.0,2.0,95,0.00,,,0.00,30,HR-IXPWINDi_r2_v1.2.,2013-04-03 14:16:00,
2013-04-03 07:21:00,44.2,42.8,30.05,West,275,1.0,2.0,95,0.00,,,0.00,40,HR-IXPWINDi_r2_v1.2.,2013-04-03 14:21:00,
2013-04-03 07:26:00,44.7,43.3,30.05,West,275,0.0,2.0,95,0.00,,,0.00,81,HR-IXPWINDi_r2_v1.2.,2013-04-03 14:26:00,
2013-04-03 07:31:00,45.6,44.2,30.05,West,275,0.0,2.0,95,0.00,,,0.00,95,HR-IXPWINDi_r2_v1.2.,2013-04-03 14:31:00,
2013-04-03 07:36:00,46.4,45.0,30.05,West,275,0.0,1.0,95,0.00,,,0.00,113,HR-IXPWINDi_r2_v1.2.,2013-04-03 14:36:00,
2013-04-03 07:42:00,46.9,45.5,30.05,West,275,0.0,0.0,95,0.00,,,0.00,128,HR-IXPWINDi_r2_v1.2.,2013-04-03 14:42:00,
2013-04-03 07:47:00,47.9,46.2,30.05,West,275,0.0,0.0,94,0.00,,,0.00,141,HR-IXPWINDi_r2_v1.2.,2013-04-03 14:47:00,
2013-04-03 07:52:00,49.2,47.5,30.05,West,275,1.0,2.0,94,0.00,,,0.00,153,HR-IXPWINDi_r2_v1.2.,2013-04-03 14:52:00,
2013-04-03 07:57:00,50.6,48.6,30.05,West,275,0.0,2.0,93,0.00,,,0.00,165,HR-IXPWINDi_r2_v1.2.,2013-04-03 14:57:00,
2013-04-03 08:02:00,50.8,47.9,30.05,West,275,0.0,1.0,90,0.00,,,0.00,186,HR-IXPWINDi_r2_v1.2.,2013-04-03 15:02:00,
2013-04-03 08:08:00,51.1,47.9,30.05,West,275,0.0,1.0,89,0.00,,,0.00,209,HR-IXPWINDi_r2_v1.2.,2013-04-03 15:08:00,
2013-04-03 08:13:00,51.7,48.2,30.05,West,275,0.0,1.0,88,0.00,,,0.00,236,HR-IXPWINDi_r2_v1.2.,2013-04-03 15:13:00,
2013-04-03 08:18:00,52.6,48.8,30.05,West,275,0.0,1.0,87,0.00,,,0.00,262,HR-IXPWINDi_r2_v1.2.,2013-04-03 15:18:00,
2013-04-03 08:23:00,53.9,49.4,30.05,West,275,0.0,2.0,85,0.00,,,0.00,285,HR-IXPWINDi_r2_v1.2.,2013-04-03 15:23:00,
2013-04-03 08:28:00,54.2,49.1,30.05,West,266,0.0,2.0,83,0.00,,,0.00,308,HR-IXPWINDi_r2_v1.2.,2013-04-03 15:28:00,
2013-04-03 08:33:00,54.9,49.8,30.05,West,266,0.0,2.0,83,0.00,,,0.00,339,HR-IXPWINDi_r2_v1.2.,2013-04-03 15:33:00,
2013-04-03 08:39:00,55.4,49.6,30.05,South,169,1.0,2.0,81,0.00,,,0.00,360,HR-IXPWINDi_r2_v1.2.,2013-04-03 15:39:00,
2013-04-03 08:44:00,56.4,50.9,30.05,SSE,166,0.0,2.0,82,0.00,,,0.00,381,HR-IXPWINDi_r2_v1.2.,2013-04-03 15:44:00,
2013-04-03 08:49:00,57.8,51.6,30.05,ESE,118,0.0,3.0,80,0.00,,,0.00,399,HR-IXPWINDi_r2_v1.2.,2013-04-03 15:49:00,
2013-04-03 08:54:00,57.9,51.4,30.05,ESE,118,0.0,3.0,79,0.00,,,0.00,415,HR-IXPWINDi_r2_v1.2.,2013-04-03 15:54:00,
2013-04-03 09:00:00,58.3,50.7,30.05,ESE,118,1.0,2.0,76,0.00,,,0.00,434,HR-IXPWINDi_r2_v1.2.,2013-04-03 16:00:00,
2013-04-03 09:05:00,58.9,50.9,30.05,SE,129,1.0,2.0,75,0.00,,,0.00,448,HR-IXPWINDi_r2_v1.2.,2013-04-03 16:05:00,
2013-04-03 09:10:00,60.2,52.5,30.04,ESE,104,1.0,2.0,76,0.00,,,0.00,469,HR-IXPWINDi_r2_v1.2.,2013-04-03 16:10:00,
2013-04-03 09:15:00,61.3,52.9,30.05,SSE,151,3.0,3.0,74,0.00,,,0.00,483,HR-IXPWINDi_r2_v1.2.,2013-04-03 16:15:00,
2013-04-03 09:20:00,62.2,53.7,30.04,East,90,0.0,4.0,74,0.00,,,0.00,504,HR-IXPWINDi_r2_v1.2.,2013-04-03 16:20:00,
2013-04-03 09:25:00,62.9,52.9,30.05,South,169,1.0,4.0,70,0.00,,,0.00,520,HR-IXPWINDi_r2_v1.2.,2013-04-03 16:25:00,
2013-04-03 09:30:00,62.7,52.3,30.05,SSE,160,0.0,3.0,69,0.00,,,0.00,536,HR-IXPWINDi_r2_v1.2.,2013-04-03 16:30:00,
2013-04-03 09:36:00,63.6,53.2,30.05,SE,144,1.0,3.0,69,0.00,,,0.00,554,HR-IXPWINDi_r2_v1.2.,2013-04-03 16:36:00,
2013-04-03 09:41:00,64.7,53.4,30.05,SSW,193,1.0,3.0,67,0.00,,,0.00,571,HR-IXPWINDi_r2_v1.2.,2013-04-03 16:41:00,
2013-04-03 09:46:00,65.0,52.9,30.05,ESE,102,0.0,3.0,65,0.00,,,0.00,587,HR-IXPWINDi_r2_v1.2.,2013-04-03 16:46:00,
2013-04-03 09:51:00,65.4,53.7,30.05,SE,136,0.0,3.0,66,0.00,,,0.00,603,HR-IXPWINDi_r2_v1.2.,2013-04-03 16:51:00,
2013-04-03 09:57:00,66.2,53.2,30.05,SSE,148,1.0,3.0,63,0.00,,,0.00,613,HR-IXPWINDi_r2_v1.2.,2013-04-03 16:57:00,
2013-04-03 10:02:00,67.7,53.3,30.05,East,90,1.0,2.0,60,0.00,,,0.00,635,HR-IXPWINDi_r2_v1.2.,2013-04-03 17:02:00,
2013-04-03 10:07:00,68.3,51.5,30.05,South,176,2.0,3.0,55,0.00,,,0.00,647,HR-IXPWINDi_r2_v1.2.,2013-04-03 17:07:00,
2013-04-03 10:13:00,68.4,51.1,30.05,SSE,163,0.0,3.0,54,0.00,,,0.00,657,HR-IXPWINDi_r2_v1.2.,2013-04-03 17:13:00,
2013-04-03 10:18:00,69.4,51.5,30.05,South,178,2.0,3.0,53,0.00,,,0.00,652,HR-IXPWINDi_r2_v1.2.,2013-04-03 17:18:00,
2013-04-03 10:23:00,68.7,47.0,30.05,South,188,5.0,7.0,46,0.00,,,0.00,626,HR-IXPWINDi_r2_v1.2.,2013-04-03 17:23:00,
2013-04-03 10:28:00,70.0,47.0,30.05,South,189,2.0,7.0,44,0.00,,,0.00,599,HR-IXPWINDi_r2_v1.2.,2013-04-03 17:28:00,
2013-04-03 10:33:00,69.6,50.1,30.06,South,183,6.0,7.0,50,0.00,,,0.00,554,HR-IXPWINDi_r2_v1.2.,2013-04-03 17:33:00,
2013-04-03 10:38:00,68.8,51.9,30.06,South,169,4.0,7.0,55,0.00,,,0.00,529,HR-IXPWINDi_r2_v1.2.,2013-04-03 17:38:00,
2013-04-03 10:44:00,67.3,51.0,30.06,South,188,5.0,8.0,56,0.00,,,0.00,536,HR-IXPWINDi_r2_v1.2.,2013-04-03 17:44:00,
2013-04-03 10:49:00,67.5,51.2,30.05,SSW,202,6.0,8.0,56,0.00,,,0.00,555,HR-IXPWINDi_r2_v1.2.,2013-04-03 17:49:00,
2013-04-03 10:54:00,68.2,53.3,30.05,SE,132,2.0,8.0,59,0.00,,,0.00,592,HR-IXPWINDi_r2_v1.2.,2013-04-03 17:54:00,
2013-04-03 10:59:00,70.5,54.0,30.05,South,181,4.0,7.0,56,0.00,,,0.00,642,HR-IXPWINDi_r2_v1.2.,2013-04-03 17:59:00,
2013-04-03 11:04:00,71.4,54.8,30.04,ESE,107,2.0,7.0,56,0.00,,,0.00,691,HR-IXPWINDi_r2_v1.2.,2013-04-03 18:04:00,
2013-04-03 11:09:00,71.8,55.7,30.04,South,185,2.0,7.0,57,0.00,,,0.00,747,HR-IXPWINDi_r2_v1.2.,2013-04-03 18:09:00,
2013-04-03 11:15:00,72.0,54.9,30.04,SE,144,1.0,7.0,55,0.00,,,0.00,788,HR-IXPWINDi_r2_v1.2.,2013-04-03 18:15:00,
2013-04-03 11:20:00,71.8,54.7,30.03,South,182,2.0,5.0,55,0.00,,,0.00,752,HR-IXPWINDi_r2_v1.2.,2013-04-03 18:20:00,
2013-04-03 11:25:00,72.4,55.3,30.03,SSE,157,0.0,4.0,55,0.00,,,0.00,780,HR-IXPWINDi_r2_v1.2.,2013-04-03 18:25:00,
2013-04-03 11:30:00,72.6,55.0,30.03,South,173,4.0,4.0,54,0.00,,,0.00,835,HR-IXPWINDi_r2_v1.2.,2013-04-03 18:30:00,
2013-04-03 11:35:00,73.2,55.5,30.03,South,173,2.0,4.0,54,0.00,,,0.00,809,HR-IXPWINDi_r2_v1.2.,2013-04-03 18:35:00,
2013-04-03 11:41:00,73.7,54.9,30.03,South,171,4.0,6.0,52,0.00,,,0.00,751,HR-IXPWINDi_r2_v1.2.,2013-04-03 18:41:00,
2013-04-03 11:46:00,71.7,54.1,30.03,ESE,113,2.0,8.0,54,0.00,,,0.00,749,HR-IXPWINDi_r2_v1.2.,2013-04-03 18:46:00,
2013-04-03 11:51:00,73.6,56.4,30.03,SSE,165,4.0,8.0,55,0.00,,,0.00,747,HR-IXPWINDi_r2_v1.2.,2013-04-03 18:51:00,
2013-04-03 11:56:00,74.0,55.2,30.03,South,173,3.0,8.0,52,0.00,,,0.00,812,HR-IXPWINDi_r2_v1.2.,2013-04-03 18:56:00,
2013-04-03 12:01:00,73.5,55.8,30.03,SSW,208,1.0,9.0,54,0.00,,,0.00,744,HR-IXPWINDi_r2_v1.2.,2013-04-03 19:01:00,
2013-04-03 12:06:00,71.7,54.6,30.03,SSW,208,5.0,11.0,55,0.00,,,0.00,693,HR-IXPWINDi_r2_v1.2.,2013-04-03 19:06:00,
2013-04-03 12:12:00,71.1,54.1,30.04,SSW,202,3.0,11.0,55,0.00,,,0.00,624,HR-IXPWINDi_r2_v1.2.,2013-04-03 19:12:00,
2013-04-03 12:17:00,70.4,53.9,30.04,SSW,198,5.0,10.0,56,0.00,,,0.00,575,HR-IXPWINDi_r2_v1.2.,2013-04-03 19:17:00,
2013-04-03 12:22:00,70.5,55.4,30.04,SSE,163,4.0,8.0,59,0.00,,,0.00,633,HR-IXPWINDi_r2_v1.2.,2013-04-03 19:22:00,
2013-04-03 12:28:00,71.2,54.6,30.03,SSE,167,4.0,8.0,56,0.00,,,0.00,633,HR-IXPWINDi_r2_v1.2.,2013-04-03 19:28:00,
2013-04-03 12:33:00,71.6,56.0,30.03,SE,136,1.0,8.0,58,0.00,,,0.00,668,HR-IXPWINDi_r2_v1.2.,2013-04-03 19:33:00,
2013-04-03 12:38:00,73.2,55.5,30.03,South,178,6.0,9.0,54,0.00,,,0.00,772,HR-IXPWINDi_r2_v1.2.,2013-04-03 19:38:00,
2013-04-03 12:43:00,72.3,55.2,30.03,SSE,162,6.0,11.0,55,0.00,,,0.00,584,HR-IXPWINDi_r2_v1.2.,2013-04-03 19:43:00,
2013-04-03 12:48:00,73.1,56.9,30.03,South,178,6.0,11.0,57,0.00,,,0.00,724,HR-IXPWINDi_r2_v1.2.,2013-04-03 19:48:00,
2013-04-03 12:53:00,72.0,56.8,30.03,SSE,159,4.0,10.0,59,0.00,,,0.00,879,HR-IXPWINDi_r2_v1.2.,2013-04-03 19:53:00,
2013-04-03 12:59:00,73.4,56.7,30.03,South,182,5.0,8.0,56,0.00,,,0.00,893,HR-IXPWINDi_r2_v1.2.,2013-04-03 19:59:00,
2013-04-03 13:04:00,71.9,55.8,30.03,South,184,5.0,9.0,57,0.00,,,0.00,893,HR-IXPWINDi_r2_v1.2.,2013-04-03 20:04:00,
2013-04-03 13:09:00,72.9,56.7,30.02,SSW,203,4.0,9.0,57,0.00,,,0.00,896,HR-IXPWINDi_r2_v1.2.,2013-04-03 20:09:00,
2013-04-03 13:15:00,73.5,57.3,30.02,SSE,161,4.0,9.0,57,0.00,,,0.00,886,HR-IXPWINDi_r2_v1.2.,2013-04-03 20:15:00,
2013-04-03 13:20:00,73.8,56.1,30.02,South,171,4.0,9.0,54,0.00,,,0.00,872,HR-IXPWINDi_r2_v1.2.,2013-04-03 20:20:00,
2013-04-03 13:25:00,73.7,57.0,30.02,South,187,5.0,10.0,56,0.00,,,0.00,870,HR-IXPWINDi_r2_v1.2.,2013-04-03 20:25:00,
2013-04-03 13:30:00,73.5,56.3,30.02,South,174,6.0,10.0,55,0.00,,,0.00,870,HR-IXPWINDi_r2_v1.2.,2013-04-03 20:30:00,
2013-04-03 13:35:00,72.4,56.3,30.02,SSW,198,1.0,8.0,57,0.00,,,0.00,868,HR-IXPWINDi_r2_v1.2.,2013-04-03 20:35:00,
2013-04-03 13:41:00,71.9,56.3,30.02,South,180,5.0,10.0,58,0.00,,,0.00,865,HR-IXPWINDi_r2_v1.2.,2013-04-03 20:41:00,
2013-04-03 13:46:00,72.0,55.9,30.02,SW,218,2.0,10.0,57,0.00,,,0.00,867,HR-IXPWINDi_r2_v1.2.,2013-04-03 20:46:00,
2013-04-03 13:51:00,73.2,58.0,30.02,SSW,192,5.0,8.0,59,0.00,,,0.00,874,HR-IXPWINDi_r2_v1.2.,2013-04-03 20:51:00,
2013-04-03 13:56:00,74.4,57.6,30.02,SSE,165,4.0,9.0,56,0.00,,,0.00,800,HR-IXPWINDi_r2_v1.2.,2013-04-03 20:56:00,
2013-04-03 14:02:00,73.2,56.0,30.01,South,169,1.0,9.0,55,0.00,,,0.00,765,HR-IXPWINDi_r2_v1.2.,2013-04-03 21:02:00,
2013-04-03 14:07:00,72.3,56.6,30.02,South,175,6.0,8.0,58,0.00,,,0.00,744,HR-IXPWINDi_r2_v1.2.,2013-04-03 21:07:00,
2013-04-03 14:12:00,71.9,57.2,30.02,South,173,6.0,8.0,60,0.00,,,0.00,828,HR-IXPWINDi_r2_v1.2.,2013-04-03 21:12:00,
2013-04-03 14:17:00,73.2,57.5,30.02,South,169,1.0,8.0,58,0.00,,,0.00,796,HR-IXPWINDi_r2_v1.2.,2013-04-03 21:17:00,
2013-04-03 14:22:00,72.4,56.7,30.01,South,185,2.0,7.0,58,0.00,,,0.00,796,HR-IXPWINDi_r2_v1.2.,2013-04-03 21:22:00,
2013-04-03 14:27:00,72.3,56.6,30.01,SW,234,2.0,8.0,58,0.00,,,0.00,626,HR-IXPWINDi_r2_v1.2.,2013-04-03 21:27:00,
2013-04-03 14:32:00,72.4,56.7,30.01,SSE,165,7.0,8.0,58,0.00,,,0.00,417,HR-IXPWINDi_r2_v1.2.,2013-04-03 21:32:00,
2013-04-03 14:37:00,71.7,57.5,30.01,South,170,3.0,9.0,61,0.00,,,0.00,728,HR-IXPWINDi_r2_v1.2.,2013-04-03 21:37:00,
2013-04-03 14:42:00,71.9,56.3,30.01,South,186,0.0,9.0,58,0.00,,,0.00,592,HR-IXPWINDi_r2_v1.2.,2013-04-03 21:42:00,
2013-04-03 14:47:00,71.6,56.9,30.01,SSE,158,3.0,8.0,60,0.00,,,0.00,663,HR-IXPWINDi_r2_v1.2.,2013-04-03 21:47:00,
2013-04-03 14:52:00,71.6,56.9,30.01,South,173,1.0,8.0,60,0.00,,,0.00,729,HR-IXPWINDi_r2_v1.2.,2013-04-03 21:52:00,
2013-04-03 14:57:00,72.2,57.0,30.00,South,185,2.0,7.0,59,0.00,,,0.00,735,HR-IXPWINDi_r2_v1.2.,2013-04-03 21:57:00,
2013-04-03 15:02:00,72.6,57.9,30.00,South,184,3.0,7.0,60,0.00,,,0.00,758,HR-IXPWINDi_r2_v1.2.,2013-04-03 22:02:00,
2013-04-03 15:07:00,73.7,57.5,30.00,South,182,1.0,7.0,57,0.00,,,0.00,738,HR-IXPWINDi_r2_v1.2.,2013-04-03 22:07:00,
2013-04-03 15:13:00,74.3,58.0,29.99,South,188,3.0,5.0,57,0.00,,,0.00,624,HR-IXPWINDi_r2_v1.2.,2013-04-03 22:13:00,
2013-04-03 15:18:00,74.8,58.5,29.99,SSE,164,1.0,5.0,57,0.00,,,0.00,698,HR-IXPWINDi_r2_v1.2.,2013-04-03 22:18:00,
2013-04-03 15:23:00,76.4,59.0,29.99,SE,144,0.0,5.0,55,0.00,,,0.00,652,HR-IXPWINDi_r2_v1.2.,2013-04-03 22:23:00,
2013-04-03 15:29:00,76.3,58.9,29.99,South,187,1.0,5.0,55,0.00,,,0.00,670,HR-IXPWINDi_r2_v1.2.,2013-04-03 22:29:00,
2013-04-03 15:34:00,76.2,57.8,29.98,SSE,155,3.0,5.0,53,0.00,,,0.00,661,HR-IXPWINDi_r2_v1.2.,2013-04-03 22:34:00,
2013-04-03 15:39:00,75.9,58.0,29.98,SSE,156,0.0,5.0,54,0.00,,,0.00,652,HR-IXPWINDi_r2_v1.2.,2013-04-03 22:39:00,
2013-04-03 15:44:00,76.3,58.4,29.97,SSE,165,0.0,5.0,54,0.00,,,0.00,631,HR-IXPWINDi_r2_v1.2.,2013-04-03 22:44:00,
2013-04-03 15:49:00,76.9,57.9,29.97,SE,138,1.0,4.0,52,0.00,,,0.00,626,HR-IXPWINDi_r2_v1.2.,2013-04-03 22:49:00,
2013-04-03 15:55:00,77.1,57.5,29.97,SSE,155,0.0,5.0,51,0.00,,,0.00,589,HR-IXPWINDi_r2_v1.2.,2013-04-03 22:55:00,
2013-04-03 16:00:00,77.3,58.8,29.97,SE,133,1.0,6.0,53,0.00,,,0.00,563,HR-IXPWINDi_r2_v1.2.,2013-04-03 23:00:00,
2013-04-03 16:05:00,77.7,58.1,29.97,South,183,5.0,6.0,51,0.00,,,0.00,522,HR-IXPWINDi_r2_v1.2.,2013-04-03 23:05:00,
2013-04-03 16:10:00,77.8,57.6,29.96,South,176,5.0,7.0,50,0.00,,,0.00,573,HR-IXPWINDi_r2_v1.2.,2013-04-03 23:10:00,
2013-04-03 16:15:00,77.3,57.2,29.96,SE,130,3.0,7.0,50,0.00,,,0.00,563,HR-IXPWINDi_r2_v1.2.,2013-04-03 23:15:00,
2013-04-03 16:21:00,78.3,57.5,29.96,South,169,4.0,7.0,49,0.00,,,0.00,545,HR-IXPWINDi_r2_v1.2.,2013-04-03 23:21:00,
2013-04-03 16:26:00,78.0,57.2,29.96,SSE,167,4.0,7.0,49,0.00,,,0.00,462,HR-IXPWINDi_r2_v1.2.,2013-04-03 23:26:00,
2013-04-03 16:31:00,77.0,57.4,29.96,South,182,3.0,9.0,51,0.00,,,0.00,512,HR-IXPWINDi_r2_v1.2.,2013-04-03 23:31:00,
2013-04-03 16:36:00,75.5,56.6,29.96,South,191,1.0,9.0,52,0.00,,,0.00,501,HR-IXPWINDi_r2_v1.2.,2013-04-03 23:36:00,
2013-04-03 16:41:00,74.8,57.5,29.97,South,173,0.0,9.0,55,0.00,,,0.00,487,HR-IXPWINDi_r2_v1.2.,2013-04-03 23:41:00,
2013-04-03 16:46:00,74.2,56.4,29.97,WSW,254,3.0,7.0,54,0.00,,,0.00,457,HR-IXPWINDi_r2_v1.2.,2013-04-03 23:46:00,
2013-04-03 16:52:00,72.7,56.5,29.97,West,274,0.0,6.0,57,0.00,,,0.00,455,HR-IXPWINDi_r2_v1.2.,2013-04-03 23:52:00,
2013-04-03 16:57:00,73.2,57.5,29.97,South,187,3.0,6.0,58,0.00,,,0.00,399,HR-IXPWINDi_r2_v1.2.,2013-04-03 23:57:00,
2013-04-03 17:02:00,74.3,58.0,29.96,South,189,2.0,5.0,57,0.00,,,0.00,304,HR-IXPWINDi_r2_v1.2.,2013-04-04 00:02:00,
2013-04-03 17:07:00,73.3,56.6,29.96,South,188,2.0,5.0,56,0.00,,,0.00,364,HR-IXPWINDi_r2_v1.2.,2013-04-04 00:07:00,
2013-04-03 17:12:00,73.3,57.1,29.96,South,185,4.0,5.0,57,0.00,,,0.00,345,HR-IXPWINDi_r2_v1.2.,2013-04-04 00:12:00,
2013-04-03 17:17:00,73.3,57.1,29.96,SSW,193,3.0,5.0,57,0.00,,,0.00,292,HR-IXPWINDi_r2_v1.2.,2013-04-04 00:17:00,
2013-04-03 17:23:00,72.8,56.6,29.96,SSE,161,5.0,6.0,57,0.00,,,0.00,274,HR-IXPWINDi_r2_v1.2.,2013-04-04 00:23:00,
2013-04-03 17:28:00,72.2,56.6,29.96,SSE,167,7.0,7.0,58,0.00,,,0.00,174,HR-IXPWINDi_r2_v1.2.,2013-04-04 00:28:00,
2013-04-03 17:33:00,70.9,55.8,29.96,South,179,4.0,10.0,59,0.00,,,0.00,221,HR-IXPWINDi_r2_v1.2.,2013-04-04 00:33:00,
2013-04-03 17:38:00,69.6,55.5,29.96,SSW,196,1.0,10.0,61,0.00,,,0.00,267,HR-IXPWINDi_r2_v1.2.,2013-04-04 00:38:00,
2013-04-03 17:43:00,68.0,54.9,29.96,SSE,161,7.0,9.0,63,0.00,,,0.00,250,HR-IXPWINDi_r2_v1.2.,2013-04-04 00:43:00,
2013-04-03 17:48:00,66.0,54.7,29.97,South,178,4.0,11.0,67,0.00,,,0.00,84,HR-IXPWINDi_r2_v1.2.,2013-04-04 00:48:00,
2013-04-03 17:54:00,64.9,54.8,29.97,South,184,3.0,11.0,70,0.00,,,0.00,70,HR-IXPWINDi_r2_v1.2.,2013-04-04 00:54:00,
2013-04-03 17:59:00,64.7,55.4,29.97,South,178,4.0,9.0,72,0.00,,,0.00,62,HR-IXPWINDi_r2_v1.2.,2013-04-04 00:59:00,
2013-04-03 18:04:00,64.4,55.1,29.97,South,186,1.0,8.0,72,0.00,,,0.00,54,HR-IXPWINDi_r2_v1.2.,2013-04-04 01:04:00,
2013-04-03 18:09:00,64.3,55.4,29.97,South,186,0.0,6.0,73,0.00,,,0.00,49,HR-IXPWINDi_r2_v1.2.,2013-04-04 01:09:00,
2013-04-03 18:14:00,63.9,55.0,29.97,SSW,198,0.0,3.0,73,0.00,,,0.00,42,HR-IXPWINDi_r2_v1.2.,2013-04-04 01:14:00,
2013-04-03 18:19:00,63.7,55.2,29.97,SSW,200,2.0,5.0,74,0.00,,,0.00,39,HR-IXPWINDi_r2_v1.2.,2013-04-04 01:19:00,
2013-04-03 18:24:00,63.6,55.5,29.97,SW,219,0.0,5.0,75,0.00,,,0.00,33,HR-IXPWINDi_r2_v1.2.,2013-04-04 01:24:00,
2013-04-03 18:29:00,63.5,55.4,29.97,SW,219,0.0,3.0,75,0.00,,,0.00,30,HR-IXPWINDi_r2_v1.2.,2013-04-04 01:29:00,
2013-04-03 18:34:00,63.4,55.3,29.97,SW,219,0.0,1.0,75,0.00,,,0.00,26,HR-IXPWINDi_r2_v1.2.,2013-04-04 01:34:00,
2013-04-03 18:40:00,63.2,55.4,29.97,SW,219,1.0,1.0,76,0.00,,,0.00,23,HR-IXPWINDi_r2_v1.2.,2013-04-04 01:40:00,
2013-04-03 18:45:00,63.1,55.4,29.97,South,182,4.0,5.0,76,0.00,,,0.00,19,HR-IXPWINDi_r2_v1.2.,2013-04-04 01:45:00,
2013-04-03 18:50:00,62.7,55.0,29.97,SSW,194,4.0,5.0,76,0.00,,,0.00,16,HR-IXPWINDi_r2_v1.2.,2013-04-04 01:50:00,
2013-04-03 18:55:00,62.1,55.1,29.97,South,182,4.0,5.0,78,0.00,,,0.00,12,HR-IXPWINDi_r2_v1.2.,2013-04-04 01:55:00,
2013-04-03 19:00:00,61.4,54.8,29.97,South,190,0.0,5.0,79,0.00,,,0.00,11,HR-IXPWINDi_r2_v1.2.,2013-04-04 02:00:00,
2013-04-03 19:05:00,60.8,54.9,29.97,SSW,195,3.0,5.0,81,0.00,,,0.00,7,HR-IXPWINDi_r2_v1.2.,2013-04-04 02:05:00,
2013-04-03 19:10:00,60.5,54.6,29.97,SSW,198,1.0,5.0,81,0.00,,,0.00,5,HR-IXPWINDi_r2_v1.2.,2013-04-04 02:10:00,
2013-04-03 19:16:00,60.1,54.5,29.98,SSE,166,7.0,8.0,82,0.00,,,0.00,0,HR-IXPWINDi_r2_v1.2.,2013-04-04 02:16:00,
2013-04-03 19:21:00,59.5,54.3,29.98,South,190,0.0,8.0,83,0.00,,,0.00,0,HR-IXPWINDi_r2_v1.2.,2013-04-04 02:21:00,
2013-04-03 19:26:00,59.0,54.1,29.98,South,191,1.0,6.0,84,0.00,,,0.00,0,HR-IXPWINDi_r2_v1.2.,2013-04-04 02:26:00,
2013-04-03 19:31:00,58.5,53.9,29.99,South,176,2.0,10.0,85,0.00,,,0.00,0,HR-IXPWINDi_r2_v1.2.,2013-04-04 02:31:00,
2013-04-03 19:36:00,57.9,53.7,29.99,SSE,160,1.0,10.0,86,0.00,,,0.00,0,HR-IXPWINDi_r2_v1.2.,2013-04-04 02:36:00,
2013-04-03 19:41:00,57.6,53.7,29.99,SW,223,1.0,7.0,87,0.00,,,0.00,0,HR-IXPWINDi_r2_v1.2.,2013-04-04 02:41:00,
2013-04-03 19:47:00,57.2,53.6,30.00,East,92,0.0,4.0,88,0.00,,,0.00,0,HR-IXPWINDi_r2_v1.2.,2013-04-04 02:47:00,
2013-04-03 19:52:00,56.9,53.6,30.00,SW,233,1.0,6.0,89,0.00,,,0.00,0,HR-IXPWINDi_r2_v1.2.,2013-04-04 02:52:00,
2013-04-03 19:57:00,56.7,53.4,30.00,WSW,250,4.0,6.0,89,0.00,,,0.00,0,HR-IXPWINDi_r2_v1.2.,2013-04-04 02:57:00,
2013-04-03 20:02:00,56.4,53.4,30.00,SW,221,2.0,5.0,90,0.00,,,0.00,0,HR-IXPWINDi_r2_v1.2.,2013-04-04 03:02:00,
2013-04-03 20:08:00,56.1,53.1,30.00,SSW,202,0.0,4.0,90,0.00,,,0.00,0,HR-IXPWINDi_r2_v1.2.,2013-04-04 03:08:00,
2013-04-03 20:13:00,55.9,53.2,30.00,SSW,202,0.0,3.0,91,0.00,,,0.00,0,HR-IXPWINDi_r2_v1.2.,2013-04-04 03:13:00,
2013-04-03 20:18:00,55.7,53.0,30.00,SSW,202,0.0,1.0,91,0.00,,,0.00,0,HR-IXPWINDi_r2_v1.2.,2013-04-04 03:18:00,
2013-04-03 20:23:00,55.7,53.0,30.00,SSW,202,0.0,1.0,91,0.00,,,0.00,0,HR-IXPWINDi_r2_v1.2.,2013-04-04 03:23:00,
2013-04-03 20:28:00,55.6,53.2,30.00,SSW,209,1.0,2.0,92,0.00,,,0.00,0,HR-IXPWINDi_r2_v1.2.,2013-04-04 03:28:00,
2013-04-03 20:34:00,55.6,53.2,30.01,South,178,2.0,4.0,92,0.00,,,0.00,0,HR-IXPWINDi_r2_v1.2.,2013-04-04 03:34:00,
2013-04-03 20:39:00,55.7,53.3,30.01,SSW,192,1.0,4.0,92,0.00,,,0.00,0,HR-IXPWINDi_r2_v1.2.,2013-04-04 03:39:00,
2013-04-03 20:44:00,55.7,53.3,30.01,SSW,192,0.0,3.0,92,0.00,,,0.00,0,HR-IXPWINDi_r2_v1.2.,2013-04-04 03:44:00,
2013-04-03 20:49:00,55.8,53.4,30.01,SSW,192,0.0,1.0,92,0.00,,,0.00,0,HR-IXPWINDi_r2_v1.2.,2013-04-04 03:49:00,
2013-04-03 20:55:00,55.9,53.5,30.02,SSW,192,0.0,1.0,92,0.00,,,0.00,0,HR-IXPWINDi_r2_v1.2.,2013-04-04 03:55:00,
2013-04-03 21:00:00,55.9,53.5,30.01,SSW,192,0.0,1.0,92,0.00,,,0.00,0,HR-IXPWINDi_r2_v1.2.,2013-04-04 04:00:00,
2013-04-03 21:05:00,55.9,53.8,30.02,SSW,192,0.0,2.0,93,0.00,,,0.00,0,HR-IXPWINDi_r2_v1.2.,2013-04-04 04:05:00,
2013-04-03 21:10:00,55.9,53.8,30.02,SSW,192,0.0,2.0,93,0.00,,,0.00,0,HR-IXPWINDi_r2_v1.2.,2013-04-04 04:10:00,
2013-04-03 21:15:00,56.0,53.6,30.03,SSW,192,0.0,2.0,92,0.00,,,0.00,0,HR-IXPWINDi_r2_v1.2.,2013-04-04 04:15:00,
2013-04-03 21:20:00,55.8,53.4,30.03,SW,214,0.0,3.0,92,0.00,,,0.00,0,HR-IXPWINDi_r2_v1.2.,2013-04-04 04:20:00,
2013-04-03 21:25:00,55.9,53.5,30.03,SW,214,1.0,3.0,92,0.00,,,0.00,0,HR-IXPWINDi_r2_v1.2.,2013-04-04 04:25:00,
2013-04-03 21:30:00,55.8,53.4,30.03,West,273,2.0,4.0,92,0.00,,,0.00,0,HR-IXPWINDi_r2_v1.2.,2013-04-04 04:30:00,
2013-04-03 21:35:00,55.8,53.7,30.03,West,273,0.0,4.0,93,0.00,,,0.00,0,HR-IXPWINDi_r2_v1.2.,2013-04-04 04:35:00,
2013-04-03 21:40:00,55.8,53.7,30.03,West,273,0.0,3.0,93,0.00,,,0.00,0,HR-IXPWINDi_r2_v1.2.,2013-04-04 04:40:00,
2013-04-03 21:46:00,55.8,53.7,30.03,West,273,1.0,3.0,93,0.00,,,0.00,0,HR-IXPWINDi_r2_v1.2.,2013-04-04 04:46:00,
2013-04-03 21:51:00,55.7,53.6,30.03,West,273,1.0,3.0,93,0.00,,,0.00,0,HR-IXPWINDi_r2_v1.2.,2013-04-04 04:51:00,
2013-04-03 21:56:00,55.6,53.5,30.03,West,273,0.0,3.0,93,0.00,,,0.00,0,HR-IXPWINDi_r2_v1.2.,2013-04-04 04:56:00,
2013-04-03 22:01:00,55.5,53.4,30.03,West,273,0.0,2.0,93,0.00,,,0.00,0,HR-IXPWINDi_r2_v1.2.,2013-04-04 05:01:00,
2013-04-03 22:06:00,55.4,53.3,30.03,West,273,0.0,2.0,93,0.00,,,0.00,0,HR-IXPWINDi_r2_v1.2.,2013-04-04 05:06:00,
2013-04-03 22:11:00,55.4,53.3,30.03,West,273,0.0,2.0,93,0.00,,,0.00,0,HR-IXPWINDi_r2_v1.2.,2013-04-04 05:11:00,
2013-04-03 22:17:00,55.5,53.4,30.04,West,273,0.0,0.0,93,0.00,,,0.00,0,HR-IXPWINDi_r2_v1.2.,2013-04-04 05:17:00,
2013-04-03 22:22:00,55.5,53.4,30.04,West,273,0.0,0.0,93,0.00,,,0.00,0,HR-IXPWINDi_r2_v1.2.,2013-04-04 05:22:00,
2013-04-03 22:27:00,55.6,53.5,30.03,West,273,0.0,1.0,93,0.00,,,0.00,0,HR-IXPWINDi_r2_v1.2.,2013-04-04 05:27:00,
2013-04-03 22:32:00,55.5,53.4,30.04,West,273,0.0,3.0,93,0.00,,,0.00,0,HR-IXPWINDi_r2_v1.2.,2013-04-04 05:32:00,
2013-04-03 22:37:00,55.5,53.4,30.04,West,273,0.0,3.0,93,0.00,,,0.00,0,HR-IXPWINDi_r2_v1.2.,2013-04-04 05:37:00,
2013-04-03 22:42:00,55.4,53.3,30.03,West,273,0.0,2.0,93,0.00,,,0.00,0,HR-IXPWINDi_r2_v1.2.,2013-04-04 05:42:00,
2013-04-03 22:47:00,55.4,53.3,30.03,West,273,0.0,2.0,93,0.00,,,0.00,0,HR-IXPWINDi_r2_v1.2.,2013-04-04 05:47:00,
2013-04-03 22:53:00,55.4,53.3,30.03,West,273,1.0,2.0,93,0.00,,,0.00,0,HR-IXPWINDi_r2_v1.2.,2013-04-04 05:53:00,
2013-04-03 22:58:00,55.1,53.0,30.03,West,273,0.0,2.0,93,0.00,,,0.00,0,HR-IXPWINDi_r2_v1.2.,2013-04-04 05:58:00,
2013-04-03 23:03:00,54.8,52.7,30.03,West,273,0.0,2.0,93,0.00,,,0.00,0,HR-IXPWINDi_r2_v1.2.,2013-04-04 06:03:00,
2013-04-03 23:08:00,54.8,52.7,30.03,West,273,0.0,1.0,93,0.00,,,0.00,0,HR-IXPWINDi_r2_v1.2.,2013-04-04 06:08:00,
2013-04-03 23:13:00,54.8,52.7,30.03,West,273,0.0,1.0,93,0.00,,,0.00,0,HR-IXPWINDi_r2_v1.2.,2013-04-04 06:13:00,
2013-04-03 23:18:00,54.8,52.7,30.03,West,273,0.0,1.0,93,0.00,,,0.00,0,HR-IXPWINDi_r2_v1.2.,2013-04-04 06:18:00,
2013-04-03 23:23:00,54.9,52.8,30.03,West,273,0.0,1.0,93,0.00,,,0.00,0,HR-IXPWINDi_r2_v1.2.,2013-04-04 06:23:00,
2013-04-03 23:29:00,54.8,52.7,30.03,West,273,0.0,1.0,93,0.00,,,0.00,0,HR-IXPWINDi_r2_v1.2.,2013-04-04 06:29:00,
2013-04-03 23:34:00,54.8,52.7,30.03,West,273,0.0,0.0,93,0.00,,,0.00,0,HR-IXPWINDi_r2_v1.2.,2013-04-04 06:34:00,
2013-04-03 23:39:00,54.6,52.5,30.03,West,273,0.0,0.0,93,0.00,,,0.00,0,HR-IXPWINDi_r2_v1.2.,2013-04-04 06:39:00,
2013-04-03 23:44:00,54.6,52.5,30.03,West,273,0.0,0.0,93,0.00,,,0.00,0,HR-IXPWINDi_r2_v1.2.,2013-04-04 06:44:00,
2013-04-03 23:49:00,54.5,52.5,30.03,West,273,0.0,0.0,93,0.00,,,0.00,0,HR-IXPWINDi_r2_v1.2.,2013-04-04 06:49:00,
2013-04-03 23:54:00,54.5,52.7,30.03,West,273,0.0,1.0,94,0.00,,,0.00,0,HR-IXPWINDi_r2_v1.2.,2013-04-04 06:54:00,
2013-04-03 23:59:00,54.4,52.4,30.03,West,273,0.0,2.0,93,0.00,,,0.00,0,HR-IXPWINDi_r2_v1.2.,2013-04-04 06:59:00,